Wind_Speed
8 6 6 5 5 4 6 6 7 4 4 5 4 4 6 7 6 3 5 9 11 11 10 9 7 5 5 6 6 7 8 8 8 8 7 8 9 10 10 11 12 12 12 12 13 14 14 16 17
9 8 7 5 5 5 5 8 4 2 3 5 6 6 5 5 4 5 7 9 8 9 8 7 6 6 5 6 7 8 8 8 8 8 9 10 11 12 12 12 13 14 15 15 15 16 16 16 17
11 10 8 5 6 8 6 8 4 2 5 6 5 5 5 3 4 4 7 5 9 8 8 7 6 6 6 7 7 8 9 9 10 10 11 12 13 14 14 15 16 16 17 17 17 18 19 18 19
10 11 10 10 7 10 7 8 6 4 5 6 6 5 5 5 5 6 5 7 9 9 9 8 7 7 8 8 9 9 10 10 11 12 12 13 14 15 15 16 17 18 19 19 20 20 20 21 22
11 11 13 9 10 12 10 8 7 5 6 6 6 5 5 5 5 4 5 7 8 8 7 8 9 10 10 9 10 10 11 12 13 13 13 14 15 15 16 18 19 20 21 22 22 23 23 23 23
12 13 8 15 9 13 11 10 8 6 6 7 7 6 5 6 4 6 7 8 8 8 8 7 8 9 9 10 10 11 11 12 13 14 14 15 16 17 18 20 20 21 22 23 24 25 25 26 26
14 14 13 11 12 12 9 10 9 8 7 8 7 8 7 4 7 7 7 8 8 8 8 8 9 9 10 10 11 11 12 13 14 14 15 16 16 18 19 20 22 23 23 23 24 25 26 26 27
16 16 15 13 12 15 12 12 11 10 10 8 7 4 7 8 8 8 7 7 8 8 8 9 10 10 11 12 12 13 14 15 15 15 16 17 17 19 21 23 23 22 22 25 25 25 26 27 28
18 19 19 15 13 14 13 12 12 12 10 10 9 11 11 10 9 7 7 8 8 8 9 9 10 11 11 12 13 14 15 15 15 16 17 17 19 21 24 23 23 23 24 25 26 27 30 30 29
21 24 18 17 15 13 14 14 14 14 13 11 12 12 11 9 9 7 7 8 8 8 9 10 11 12 12 13 14 15 15 15 15 16 17 20 21 23 23 24 24 24 25 27 28 30 30 29 26
24 27 20 18 16 17 16 17 16 15 12 11 13 13 11 9 8 8 8 8 8 8 10 11 12 12 13 14 15 15 15 15 15 16 18 21 23 22 22 24 25 26 28 30 31 31 29 27 25
26 25 22 22 20 20 19 19 18 17 10 16 14 12 10 8 8 10 10 8 8 10 11 12 12 13 13 14 16 15 14 14 14 17 19 21 21 21 22 24 27 28 30 31 31 30 28 25 24
26 24 24 22 23 23 23 20 21 14 15 15 11 8 8 8 9 9 9 8 10 13 14 14 14 13 14 15 16 14 13 13 15 17 20 20 20 21 22 25 28 29 30 30 29 27 24 23 21
26 25 26 26 23 24 23 21 22 11 13 11 11 10 8 7 10 8 8 11 13 15 16 16 16 14 14 15 15 13 13 14 14 17 19 19 19 21 23 25 27 28 29 29 27 23 22 21 17
25 25 23 23 24 26 24 25 22 18 15 14 10 8 9 9 8 9 11 12 12 15 16 16 15 13 14 15 13 12 13 15 15 18 18 18 19 21 23 25 27 27 29 28 24 23 21 18 13
20 25 26 24 23 24 21 26 16 12 14 14 13 13 11 10 8 13 12 12 13 14 15 14 13 12 13 12 11 12 13 14 16 17 18 18 19 21 23 25 25 26 27 26 22 23 21 17 11
21 17 21 23 23 20 20 18 14 18 13 14 16 15 15 12 12 13 13 13 13 14 13 12 11 10 11 10 10 12 13 14 16 17 18 19 20 21 22 24 24 26 26 23 22 24 19 13 10
25 25 25 18 14 17 22 24 18 12 16 17 17 16 17 17 16 15 14 14 13 14 12 11 10 10 9 9 10 12 13 14 15 16 18 19 19 20 21 22 25 25 24 20 22 20 15 12 10
22 14 20 21 20 23 26 26 20 20 24 23 21 22 22 21 18 16 15 14 13 12 12 10 9 8 8 9 10 11 12 14 14 15 17 18 18 19 20 22 25 23 20 16 20 17 15 13 10
31 22 17 16 17 19 22 28 25 22 24 25 23 22 20 20 19 18 17 15 14 12 11 10 8 7 7 9 9 10 12 14 14 14 16 17 17 18 19 21 25 21 16 14 18 16 15 13 9
30 31 27 19 12 15 21 29 26 23 22 24 23 21 18 17 16 16 16 15 14 12 11 10 8 7 7 8 9 9 11 13 14 14 15 16 16 16 16 20 22 18 14 13 15 14 13 13 9
27 26 24 25 18 9 11 8 15 11 15 22 22 20 17 15 15 15 15 15 14 12 11 10 8 7 7 7 8 10 11 12 13 12 13 15 15 14 14 18 21 18 14 10 12 13 10 10 8
27 22 20 21 23 23 23 10 13 21 22 17 21 21 18 16 15 15 16 15 14 12 12 11 9 7 6 7 8 10 10 11 12 11 12 13 14 12 12 16 20 17 14 7 7 10 7 7 9
26 21 13 12 12 7 23 18 12 23 22 17 22 21 19 16 15 16 16 15 14 13 13 12 9 7 7 7 8 9 10 11 12 12 11 12 13 11 11 14 17 15 14 10 2 2 3 1 6
21 20 3 1 2 6 11 18 31 14 18 20 20 21 20 17 15 14 15 15 15 15 15 14 11 8 7 6 7 9 9 10 11 11 11 11 12 11 10 12 15 14 12 11 4 2 1 1 6
34 31 11 8 5 3 12 13 14 18 22 19 21 21 19 17 15 15 17 19 19 19 18 15 13 10 7 6 7 7 8 9 10 10 10 9 9 9 8 10 13 13 10 10 5 2 2 3 10
35 35 30 0 2 1 8 13 22 17 20 26 23 20 18 18 16 16 15 17 20 20 19 17 15 12 8 7 7 6 7 9 10 10 10 9 8 8 7 7 10 12 8 7 8 4 2 4 17
31 35 19 20 4 4 6 9 13 17 23 23 23 23 23 21 18 16 15 16 19 20 21 19 16 14 11 9 7 7 7 8 9 10 11 10 8 7 5 4 6 8 6 4 4 3 9 16 21
38 28 23 16 15 5 2 9 17 18 12 19 20 20 19 18 16 15 17 18 19 21 21 19 18 16 14 12 10 9 9 10 9 11 11 11 9 7 6 4 5 7 6 1 1 6 15 13 12
43 38 43 21 12 21 3 14 4 15 23 21 22 19 17 16 15 16 17 17 19 19 20 20 20 19 18 14 13 11 11 11 10 10 10 10 9 6 6 3 3 5 7 4 8 10 14 11 9
Wind_Direction
219 219 220 213 212 225 208 200 206 218 269 294 283 287 299 291 279 275 288 300 309 323 325 325 332 325 322 325 330 329 331 333 320 306 293 289 289 293 297 298 299 296 296 297 292 290 283 275 264
219 221 220 224 229 217 203 185 172 223 300 310 298 309 314 304 292 283 297 308 328 328 326 338 333 330 323 323 330 335 337 325 317 301 289 290 295 296 297 296 294 295 296 295 291 290 286 280 267
224 221 219 227 227 207 171 176 193 270 326 327 320 333 322 311 305 301 305 308 330 330 334 348 336 330 323 329 335 330 327 321 307 300 300 301 303 302 301 300 299 299 296 293 291 288 284 281 270
221 215 216 230 233 204 191 200 223 270 312 318 314 325 327 312 306 310 318 322 333 336 344 337 332 325 329 332 329 323 320 310 306 308 310 311 309 308 308 307 306 305 304 300 294 288 284 281 278
220 217 222 239 233 210 222 229 241 269 314 319 305 301 305 302 295 313 314 320 335 333 330 332 332 330 332 330 321 320 315 312 315 317 319 318 316 313 315 314 311 309 305 304 301 296 292 284 274
223 221 235 238 230 211 231 241 242 268 294 307 297 292 293 290 284 312 317 322 324 326 333 330 328 327 327 319 321 317 315 318 319 323 323 318 318 318 316 312 312 309 309 307 304 299 294 291 286
224 228 240 249 227 226 239 245 247 265 277 288 290 290 290 285 303 310 315 315 320 327 327 327 328 326 322 321 321 319 320 319 323 325 321 318 319 316 313 313 311 311 310 308 304 302 298 293 287
228 231 242 242 237 234 247 249 249 261 272 277 285 284 288 299 300 306 316 321 323 325 324 324 324 323 323 321 322 320 320 319 324 323 318 318 319 317 315 316 316 315 312 307 307 304 301 296 285
231 232 241 243 242 241 244 243 248 256 260 276 285 286 290 292 291 293 302 311 315 318 318 320 320 318 317 318 319 320 316 318 322 320 319 320 321 321 321 320 319 315 312 311 310 311 307 298 291
229 237 243 244 247 246 243 243 248 255 263 278 282 282 284 287 284 284 287 299 306 309 310 310 313 314 315 317 318 318 316 320 320 321 322 323 324 323 323 323 318 313 311 312 314 311 305 299 292
234 242 240 246 250 251 251 254 255 260 265 277 269 270 276 277 274 273 282 286 290 296 304 311 314 313 314 316 316 316 319 319 321 325 324 326 325 325 323 322 319 318 316 316 317 310 307 304 295
235 241 247 247 256 257 260 260 265 262 285 270 267 270 269 257 250 260 267 272 284 290 296 306 310 312 313 311 312 315 318 317 323 324 325 326 327 328 326 327 323 322 320 321 317 313 312 306 296
240 241 247 248 252 258 261 265 269 266 268 271 270 263 254 244 238 250 266 275 286 288 293 298 304 306 305 307 310 312 313 319 323 325 326 328 330 331 331 328 325 325 325 321 317 317 318 310 303
241 241 243 248 250 258 262 264 265 269 268 258 261 249 237 226 241 249 258 278 284 289 294 299 299 297 298 301 307 308 315 319 324 324 327 327 332 333 332 331 329 330 328 323 322 326 323 318 310
243 249 247 251 253 260 263 262 268 264 266 260 249 237 241 240 240 243 271 279 278 288 297 297 301 291 288 296 306 308 315 320 325 327 328 329 334 334 335 335 334 333 329 326 327 335 331 326 318
245 248 253 251 253 258 261 263 264 271 246 244 243 259 244 239 249 274 272 272 277 288 295 298 293 283 285 298 300 307 316 320 325 329 329 331 336 336 338 339 337 334 329 330 334 339 332 336 338
241 243 248 250 252 256 253 264 263 246 235 239 249 249 247 233 271 272 265 270 273 284 291 293 291 285 288 294 301 311 318 320 327 331 330 333 338 340 342 342 342 336 331 333 341 343 342 352 356
233 233 240 246 255 252 254 255 250 241 237 238 243 247 252 262 268 271 268 269 270 279 281 288 283 280 285 293 305 313 316 322 329 333 334 335 341 342 345 346 343 339 333 340 355 357 20 21 31
238 244 249 252 255 259 261 260 246 245 252 253 247 250 255 261 262 264 264 264 266 275 279 277 273 272 280 294 303 311 315 323 329 336 341 339 345 346 349 350 346 344 337 351 11 20 35 41 46
238 243 250 262 262 263 261 260 257 252 250 255 256 256 257 256 258 259 255 253 257 262 268 269 259 261 281 294 304 311 313 323 328 337 344 344 348 350 353 354 353 348 344 7 25 31 46 47 46
237 240 245 255 257 266 277 272 263 258 251 253 255 256 256 252 251 251 244 241 245 250 255 254 245 261 280 295 305 310 312 324 331 338 343 347 351 355 356 359 358 358 357 19 33 39 54 55 45
240 241 245 242 258 273 277 286 264 260 240 240 244 246 243 247 255 248 239 236 238 244 244 237 240 258 277 293 305 310 315 325 334 337 341 348 353 356 358 1 1 357 354 21 39 48 58 72 64
235 235 242 245 253 260 256 268 270 257 247 237 236 236 238 252 243 237 235 236 238 238 237 232 238 251 271 286 301 308 314 324 334 336 340 347 353 358 359 2 2 357 346 2 56 63 67 86 104
233 233 230 227 230 256 241 226 252 252 253 241 237 234 237 237 244 243 240 238 236 236 234 228 236 245 264 281 299 306 313 324 334 339 341 344 354 358 4 2 3 358 340 358 84 99 78 78 140
221 204 113 244 198 226 194 214 235 232 245 237 232 230 230 240 245 241 238 233 230 230 229 225 231 238 254 277 296 307 318 323 335 341 341 342 355 360 6 2 4 3 347 340 359 110 65 226 162
202 202 186 195 196 209 194 231 239 221 229 231 228 231 235 238 236 236 241 239 233 229 224 224 229 234 245 271 287 303 323 329 332 339 339 337 354 2 7 3 4 5 358 348 353 21 67 121 153
203 205 217 214 166 159 212 249 240 217 216 230 230 232 234 239 236 239 241 235 232 228 221 223 226 229 237 253 277 298 321 329 333 337 334 333 345 0 8 8 2 6 360 359 353 74 53 148 145
219 214 202 216 145 243 246 251 219 220 225 227 232 234 237 240 241 240 235 230 227 225 224 225 226 227 234 244 260 278 302 314 328 331 331 330 328 350 3 7 3 7 6 6 359 71 115 135 144
206 205 207 210 226 178 200 247 245 226 222 225 226 231 231 231 231 233 232 229 227 229 227 227 228 230 235 243 257 273 295 306 322 327 329 326 321 335 344 360 353 1 358 192 214 162 134 127 154
216 215 212 202 209 219 227 247 226 216 219 210 216 220 228 233 233 232 229 228 231 231 229 229 232 235 238 246 259 274 287 299 309 311 314 314 311 314 324 326 344 348 339 192 181 195 189 173 166
Height
3133 3134 3136 3137 3141 3137 3136 3137 3137 3138 3138 3138 3138 3139 3139 3138 3138 3141 3136 3135 3135 3134 3132 3131 3130 3128 3128 3127 3127 3127 3127 3127 3126 3126 3126 3126 3125 3125 3125 3125 3124 3123 3123 3122 3122 3122 3122 3121 3121
3133 3134 3135 3136 3137 3135 3135 3136 3136 3137 3137 3137 3137 3137 3137 3137 3137 3136 3136 3135 3134 3133 3131 3130 3128 3128 3127 3126 3126 3126 3126 3126 3125 3124 3124 3124 3124 3124 3124 3123 3123 3122 3122 3121 3120 3119 3119 3119 3118
3132 3133 3135 3134 3133 3133 3135 3135 3135 3136 3136 3136 3136 3136 3136 3137 3136 3135 3134 3134 3134 3132 3130 3129 3127 3126 3125 3125 3126 3125 3124 3124 3123 3123 3122 3123 3123 3122 3121 3121 3120 3120 3119 3118 3117 3117 3116 3115 3114
3130 3133 3134 3132 3132 3133 3134 3134 3134 3135 3135 3135 3135 3135 3136 3135 3135 3135 3134 3133 3132 3131 3130 3128 3126 3125 3125 3126 3125 3124 3123 3122 3121 3121 3121 3121 3120 3120 3119 3118 3117 3116 3115 3114 3113 3112 3112 3112 3112
3129 3130 3130 3129 3130 3131 3132 3133 3134 3133 3134 3134 3134 3134 3134 3134 3134 3133 3132 3132 3131 3129 3127 3126 3126 3126 3126 3125 3123 3123 3122 3121 3121 3120 3119 3119 3117 3116 3116 3115 3114 3113 3111 3109 3108 3107 3106 3106 3106
3128 3129 3128 3127 3128 3129 3131 3132 3133 3133 3132 3132 3132 3132 3133 3133 3132 3132 3131 3130 3129 3128 3127 3125 3124 3125 3124 3123 3122 3121 3120 3120 3119 3119 3118 3116 3115 3114 3113 3111 3110 3108 3107 3105 3104 3102 3101 3101 3101
3126 3127 3126 3126 3127 3128 3129 3130 3131 3131 3131 3131 3131 3132 3133 3132 3131 3131 3130 3129 3128 3126 3125 3124 3124 3123 3122 3122 3121 3120 3120 3118 3117 3117 3116 3114 3112 3111 3109 3108 3106 3104 3102 3100 3099 3097 3096 3095 3093
3124 3125 3124 3125 3125 3127 3128 3128 3128 3129 3129 3129 3130 3130 3131 3131 3130 3129 3129 3128 3127 3125 3124 3123 3123 3122 3122 3121 3120 3119 3118 3117 3116 3115 3113 3112 3110 3108 3106 3104 3102 3100 3098 3095 3094 3091 3089 3087 3086
3122 3122 3121 3123 3124 3125 3125 3126 3126 3126 3126 3126 3127 3127 3128 3128 3128 3128 3127 3126 3125 3124 3123 3122 3121 3121 3120 3120 3119 3118 3116 3115 3114 3112 3111 3109 3108 3105 3104 3101 3099 3096 3094 3091 3087 3085 3082 3078 3077
3118 3118 3119 3121 3121 3122 3123 3123 3123 3124 3124 3125 3124 3124 3124 3125 3125 3125 3125 3124 3123 3123 3122 3121 3120 3120 3119 3118 3117 3116 3115 3114 3112 3110 3108 3107 3105 3103 3101 3100 3097 3093 3090 3086 3082 3078 3074 3070 3068
3114 3114 3118 3118 3119 3120 3120 3120 3120 3120 3121 3122 3121 3121 3121 3122 3123 3123 3123 3122 3122 3121 3120 3120 3119 3119 3118 3117 3116 3114 3113 3112 3110 3108 3106 3105 3102 3100 3098 3096 3093 3089 3085 3080 3076 3070 3066 3063 3060
3110 3112 3114 3116 3116 3117 3117 3117 3117 3117 3120 3117 3118 3118 3119 3120 3121 3121 3121 3121 3120 3119 3118 3118 3117 3117 3117 3115 3114 3113 3112 3110 3108 3107 3105 3102 3100 3097 3095 3092 3089 3085 3081 3076 3070 3065 3060 3057 3054
3106 3109 3110 3111 3113 3113 3114 3114 3113 3114 3114 3114 3115 3115 3116 3117 3118 3118 3119 3118 3118 3117 3117 3116 3115 3115 3114 3113 3112 3111 3110 3109 3107 3106 3103 3101 3098 3095 3091 3089 3085 3080 3076 3071 3065 3059 3054 3052 3049
3102 3105 3106 3107 3109 3109 3110 3110 3109 3112 3111 3112 3112 3112 3113 3114 3115 3116 3116 3116 3116 3115 3114 3114 3113 3113 3112 3111 3111 3110 3109 3107 3105 3103 3101 3098 3095 3093 3089 3085 3080 3076 3071 3066 3061 3055 3051 3047 3045
3099 3101 3102 3103 3105 3105 3106 3105 3105 3107 3107 3108 3110 3110 3110 3111 3111 3113 3113 3114 3114 3113 3112 3111 3111 3111 3110 3109 3109 3108 3107 3106 3103 3102 3099 3096 3093 3091 3088 3083 3078 3073 3067 3062 3057 3052 3048 3044 3040
3097 3097 3098 3099 3101 3101 3103 3099 3103 3103 3103 3105 3107 3108 3108 3108 3109 3110 3110 3110 3110 3110 3111 3110 3109 3109 3108 3108 3108 3107 3106 3104 3102 3100 3097 3095 3092 3089 3085 3081 3076 3071 3066 3061 3056 3051 3046 3042 3038
3093 3093 3093 3095 3096 3098 3099 3097 3098 3100 3101 3101 3102 3103 3104 3105 3106 3106 3107 3107 3107 3107 3108 3107 3107 3107 3107 3107 3107 3106 3105 3103 3100 3098 3096 3093 3091 3088 3084 3079 3075 3070 3065 3060 3056 3050 3044 3040 3038
3087 3089 3089 3091 3093 3093 3093 3093 3096 3096 3096 3098 3099 3100 3101 3102 3102 3103 3104 3104 3104 3105 3104 3104 3104 3105 3105 3105 3105 3104 3103 3101 3100 3097 3095 3092 3089 3086 3082 3078 3073 3070 3065 3060 3055 3049 3044 3042 3041
3085 3086 3087 3089 3089 3089 3089 3087 3091 3093 3091 3093 3095 3095 3097 3098 3098 3100 3101 3101 3101 3102 3102 3102 3102 3102 3102 3103 3103 3101 3101 3099 3098 3096 3093 3091 3087 3084 3081 3076 3072 3068 3065 3061 3056 3051 3046 3045 3045
3081 3083 3085 3086 3086 3086 3084 3081 3084 3087 3087 3088 3090 3091 3092 3093 3094 3096 3097 3097 3098 3099 3100 3101 3101 3101 3101 3101 3100 3100 3099 3097 3096 3094 3091 3089 3086 3083 3080 3075 3071 3067 3065 3062 3057 3054 3050 3049 3049
3075 3078 3082 3086 3084 3083 3081 3076 3077 3080 3082 3083 3085 3087 3088 3089 3089 3091 3092 3093 3095 3096 3097 3099 3099 3100 3100 3100 3099 3098 3097 3096 3095 3093 3090 3088 3085 3083 3080 3075 3071 3068 3065 3063 3059 3057 3054 3053 3053
3071 3075 3078 3081 3083 3082 3082 3075 3073 3074 3076 3078 3080 3081 3084 3085 3086 3086 3088 3089 3091 3093 3095 3096 3097 3098 3098 3098 3098 3097 3096 3094 3093 3091 3089 3087 3085 3082 3079 3075 3072 3069 3066 3064 3061 3060 3058 3058 3058
3067 3070 3074 3077 3078 3079 3078 3081 3066 3069 3071 3073 3075 3077 3079 3080 3082 3083 3084 3086 3088 3090 3092 3093 3094 3095 3096 3096 3096 3095 3095 3093 3091 3089 3087 3084 3083 3082 3079 3075 3073 3070 3067 3065 3064 3063 3061 3061 3061
3065 3069 3071 3074 3075 3074 3070 3074 3061 3064 3066 3067 3070 3072 3074 3076 3078 3080 3081 3082 3084 3086 3088 3090 3092 3093 3093 3094 3094 3094 3093 3091 3090 3088 3086 3083 3081 3081 3079 3075 3073 3071 3068 3066 3064 3063 3064 3063 3063
3061 3067 3071 3077 3076 3067 3063 3065 3052 3058 3060 3062 3064 3067 3070 3072 3074 3076 3078 3079 3080 3082 3084 3087 3089 3090 3091 3092 3092 3092 3091 3090 3088 3087 3086 3083 3081 3080 3078 3076 3074 3071 3068 3066 3064 3064 3064 3064 3064
3051 3059 3058 3068 3066 3057 3060 3052 3046 3052 3055 3057 3059 3062 3065 3068 3070 3071 3074 3076 3077 3078 3080 3083 3086 3088 3088 3090 3091 3090 3089 3089 3087 3084 3084 3082 3080 3079 3077 3076 3074 3072 3069 3066 3066 3064 3063 3064 3066
3047 3050 3054 3055 3055 3055 3049 3044 3044 3046 3050 3052 3055 3057 3060 3062 3065 3067 3069 3071 3074 3075 3077 3079 3082 3085 3086 3086 3089 3088 3086 3086 3086 3083 3082 3081 3079 3078 3076 3075 3073 3072 3070 3067 3067 3065 3064 3064 3066
3038 3045 3050 3051 3057 3057 3042 3040 3037 3039 3043 3046 3050 3053 3056 3058 3061 3063 3065 3067 3070 3072 3074 3076 3079 3082 3083 3084 3085 3085 3084 3084 3083 3082 3081 3080 3078 3076 3075 3074 3073 3072 3071 3069 3069 3067 3066 3068 3070
3030 3033 3039 3042 3043 3040 3046 3033 3034 3038 3041 3044 3047 3049 3051 3054 3057 3059 3061 3063 3066 3068 3071 3074 3076 3078 3080 3081 3081 3083 3082 3082 3082 3081 3079 3079 3077 3076 3075 3074 3073 3071 3071 3070 3070 3070 3070 3072 3074
3020 3024 3028 3030 3032 3032 3033 3027 3030 3031 3036 3040 3043 3045 3047 3050 3053 3055 3057 3059 3062 3065 3068 3070 3072 3074 3076 3078 3079 3080 3080 3080 3079 3079 3077 3076 3075 3074 3073 3073 3072 3071 3069 3069 3070 3072 3072 3072 3075